Location: Caracas
(10.5033°N, 66.8422°W)
Time: 22:16:20
(UTC-04:00)

Vanguard 1 Rocket - Visible Passes

Search period start: 16 July 2018 00:00
Search period end: 26 July 2018 00:00
Orbit: 652 x 4225 km, 34.3° (Epoch: 16 July)

Date Brightness Start Highest point End Pass type
(mag) Time Alt. Az. Time Alt. Az. Time Alt. Az.
16 Jul 11.3 03:57:46 16° SSW 04:15:23 34° SE 04:35:26 10° E visible
16 Jul 9.5 19:10:59 10° SW 19:12:56 12° SSW 19:15:09 10° S visible
17 Jul 11.3 02:50:43 19° SSE 02:59:14 22° SE 03:16:44 10° E visible
17 Jul 10.9 05:08:40 10° SW 05:34:08 59° SE 05:54:27 10° ENE visible
18 Jul 11.6 01:43:41 12° SE 01:43:41 12° SE 01:51:00 10° SE visible
18 Jul 11.1 04:00:59 20° SSW 04:18:28 42° SE 04:39:53 10° ENE visible
19 Jul 11.2 02:53:58 24° S 03:02:43 28° SE 03:22:35 10° E visible
19 Jul 10.8 05:11:16 11° SW 05:36:51 70° SE 05:57:52 10° ENE visible
20 Jul 11.5 01:46:57 17° SE 01:46:57 17° SE 02:00:24 10° ESE visible
20 Jul 11.0 04:04:16 24° SSW 04:21:16 51° SE 04:43:50 10° ENE visible
21 Jul 11.0 02:57:15 29° S 03:05:47 35° SE 03:27:33 10° E visible
21 Jul 10.7 05:14:33 13° SW 05:39:29 82° SE 06:01:05 10° ENE visible
22 Jul 11.3 01:50:15 22° SE 01:50:28 22° SE 02:07:36 10° E visible
22 Jul 10.8 04:07:33 28° SSW 04:23:54 62° SE 04:47:24 10° ENE visible
23 Jul 10.8 03:00:32 36° S 03:08:33 43° SE 03:31:52 10° ENE visible
23 Jul 10.7 05:17:50 14° SW 05:42:06 87° NW 06:04:09 10° NE visible
24 Jul 11.1 01:53:30 28° SE 01:53:37 28° SE 02:13:26 10° E visible
24 Jul 10.7 04:10:48 32° SW 04:26:26 72° SE 04:50:41 10° ENE visible
25 Jul 11.6 00:46:27 12° ESE 00:46:27 12° ESE 00:49:47 10° ESE visible
25 Jul 10.6 03:03:45 44° S 03:11:06 53° SE 03:35:40 10° ENE visible
25 Jul 10.7 05:21:03 14° WSW 05:44:47 76° NW 06:07:08 10° NE visible
